Regional Weather Roundup
Issued by NWS

Home | Current Version | Previous Version | Graphics & Text | Print | Product List | Glossary On
Versions: 1 2 3 4 5 6 7 8 9 10 11 12 13 14 15 16 17 18 19 20 21 22 23 24 25 26 27
000
ASUS45 KTFX 300010
RWRMT
MONTANA REGIONAL WEATHER ROUNDUP
NATIONAL WEATHER SERVICE GREAT FALLS MT
600 PM MDT FRI APR 29 2016

NOTE: "FAIR" INDICATES FEW OR NO CLOUDS BELOW 12000 FEET WITH NO
SIGNIFICANT WEATHER AND/OR OBSTRUCTIONS TO VISIBILITY.

MTZ001>007-043-300100-
WEST OF THE DIVIDE

CITY           SKY/WX    TMP DP  RH WIND       PRES   REMARKS
KALISPELL      CLOUDY    52  30  43 N6        29.93S
MISSOULA       CLOUDY    52  35  52 N15       29.93R
BUTTE          LGT RAIN  42  35  76 W9        29.87R
MULLAN PASS    CLOUDY    39  27  62 CALM      29.93R
ANACONDA         N/A     46  30  53 CALM      29.88R
DEER LODGE       N/A     50  32  50 N5        29.88R
EUREKA           N/A     52  34  50 S5        29.95S
HAMILTON         N/A     48  34  57 NW10      29.90R
LIBBY            N/A     52  34  50 CALM      29.95R
PLAINS           N/A     56  32  40 MISG      29.94R
$$

MTZ008-052>055-300100-
SOUTHWEST MONTANA

CITY           SKY/WX    TMP DP  RH WIND       PRES   REMARKS
BOZEMAN        CLOUDY    53  34  48 E20G25    29.87R
DILLON         PTSUNNY   50  31  48 SE8       29.82F
ENNIS          PTSUNNY   48  32  53 VRB6      29.89S
THREE FORKS      N/A     55  10  16 E5        29.88R
TWIN BRIDGES     N/A     52  33  48 E12       29.85S
$$

MTZ009-010-012-014-046-048-049-054-300100-
EAST SLOPES AND CENTRAL MONTANA

CITY           SKY/WX    TMP DP  RH WIND       PRES   REMARKS
CUT BANK       CLOUDY    48  32  53 SE10      29.96R
GREAT FALLS    CLOUDY    51  32  48 NE12      29.93R
MALMSTROM AFB  CLOUDY    51  35  55 E16       29.94R
HELENA         CLOUDY    56  30  37 N6        29.88R
CHOTEAU          N/A     50  30  46 E13       29.95R
CONRAD           N/A     51  41  69 E12       29.99R
$$

MTZ011-013-016-021-045-047-050-051-300100-
NORTH CENTRAL MONTANA

CITY           SKY/WX    TMP DP  RH WIND       PRES   REMARKS
HAVRE          CLOUDY    52  36  54 E17G25    30.01R
LEWISTOWN      CLOUDY    47  32  56 E17       29.98S
N BAR RANCH    CLOUDY    43  32  65 E9        30.02R
CHINOOK          N/A     54  36  50 E15       30.03R
$$

MTZ017>020-022>027-061-062-300100-
NORTHEAST MONTANA

CITY           SKY/WX    TMP DP  RH WIND       PRES   REMARKS
GLASGOW        CLOUDY    56  34  43 SE21      30.06R
JORDAN           N/A     52  37  56 SE16      30.04R
SIDNEY         CLOUDY    59  30  33 SE13      30.10S
WOLF POINT     CLOUDY    59  32  36 SE12      30.08R
PLENTYWOOD       N/A     59  25  27 SE16      30.11S
POPLAR           N/A     57  30  35 SE12G17   30.09S
SCOBEY           N/A     55  25  31 SE14      30.09
$$

MTZ028>42-056>058-300100-
SOUTHCENTRAL AND SOUTHEAST MONTANA

CITY           SKY/WX    TMP DP  RH WIND       PRES   REMARKS
BAKER          CLOUDY    49  34  56 SE10      30.07F
BILLINGS       CLOUDY    49  33  54 E13       29.97S
LIVINGSTON     CLOUDY    45  33  63 E18       29.91R
MILES CITY     CLOUDY    51  36  56 SE15      30.04F
EKALAKA          N/A     46  32  58 E13       30.02
FORSYTH          N/A     48  39  71 E17G23    30.02S
LAUREL           N/A     50  28  42 NE9       29.96S
ROUNDUP          N/A     48  31  52 E3        29.92R
$$

REGIONAL REPORTS...DAKOTAS

CITY           SKY/WX    TMP DP  RH WIND       PRES   REMARKS
WILLISTON      MOSUNNY   60  27  28 SE10      30.11F
MINOT          SUNNY     64  20  18 E17       30.14S
DICKINSON      PTSUNNY   55  27  34 E13       30.06S
BEACH          PTSUNNY   52  32  46 SE13      30.11S
CROSBY           N/A     59  21  23 SE15      30.15S
WATFORD CITY     N/A     59  25  27 E13       30.11S
BISMARCK       MOSUNNY   60  33  36 E12       30.10R
GRAND FORKS    MOSUNNY   62  29  28 NE12      30.16R
FARGO          SUNNY     64  32  30 N14       30.10S
BUFFALO SD       N/A     51  32  48 E9        29.99S
RAPID CITY     CLOUDY    45  35  68 NE9       30.03F
$$

REGIONAL REPORTS...WYOMING/IDAHO/WASHINGTON

CITY           SKY/WX    TMP DP  RH WIND       PRES   REMARKS
GILLETTE       CLOUDY    43  36  76 E12       29.97R
SHERIDAN       CLOUDY    47  32  56 E6        29.97S
BUFFALO WY       N/A    N/A N/A N/A MISG      29.97F
CODY           CLOUDY    45  30  57 CALM      29.94R
YELLOWSTONE LA   N/A     40  25  55 VRB3      29.89R
IDAHO FALLS    PTSUNNY   51  36  56 S9        29.83F
SALMON         CLOUDY    52  34  50 N10       29.85R
BOISE          MOSUNNY   61  37  41 NW24G31   29.85R
SPOKANE        LGT RAIN  51  41  68 W5        29.96R
$$

REGIONAL REPORTS...ALBERTA

CITY           SKY/WX    TMP DP  RH WIND       PRES   REMARKS
EDMONTON       SUNNY     59  28  31 S14G22    29.98R
CALGARY        PTSUNNY   52  30  43 S16       29.97R
LETHBRIDGE     CLOUDY    48  34  57 E8        29.98R
MEDICINE HAT   CLOUDY    54  36  50 S6        30.01S
WATERTON GATE    N/A     45  32  61 N3          N/A
CARDSTON         N/A     48  28  46 SE6         N/A
MILK RIVER       N/A     48  32  53 S9          N/A
$$

REGIONAL REPORTS...SASKATCHEWAN

CITY           SKY/WX    TMP DP  RH WIND       PRES   REMARKS
SWIFT CURRENT  MOSUNNY   59  23  25 SE15G23   30.05R
REGINA         MOSUNNY   63  14  15 SE16G24   30.14R
SASKATOON      SUNNY     64  16  15 S15G24    30.13S
CYPRESS HILLS    N/A     48  30  49 SE12G22     N/A
VAL MARIE        N/A     55  27  33 SE16        N/A
ROCKGLEN         N/A     54  25  32 SE13G20     N/A
ASSINIBOIA       N/A     64  23  20 S15G21      N/A
$$




USA.gov is the U.S. government's official web portal to all federal, state and local government web resources and services.